Torna al catalogo

STARLINK-2194

AttivoComunicazioniVLEO
NORAD 47771·PAYLOAD·🇺🇸 United States

Lanciato Mar 4, 2021 da Cape Canaveral Space Force Station

Loading…

Prossimi Passaggi (prossime 24 ore)

TLE

AggiornatoSource: CelesTrak SupGP

Epoca: Sep 14, 2026, 20:43 UTC

1 47771C 21017BB  26257.86368056  .00092896  00000+0  26508-2 0  2574
2 47771  53.1582  43.0366 0001005   5.2091 149.4260 15.35435639    18

Traccia STARLINK-2194 in tempo reale con AllMySat

Download on the App Store